x

Fairport, Mi (fptm4) Weather Station

5:40am - Tue 7th Jul 2015 All times are CDT. -5 hours from GMT.

  • Wind
    5mph, 9mph gusts
  • Air Temp 52°f
  • Sea Pressure 1013.9mb
  • Fairport, Mi
  • Fairport, Mi

More Historic Weather Station data

Upgrade to MSW Pro to gain access to the past 30 days of data for over 8000 Wavebouys and Weather Stations around the globe.

Join Pro

Comparision Forecast

View Surf forecast
   
Tue 07/07 5:40am 5 9 mph 1013.9mb 52f
5:30am 6 8 mph 1013.5mb 52f
5:20am 6 10 mph 1013.5mb 52f
5:10am 6 11 mph 1013.2mb 52f
5:00am 6 10 mph 1013.2mb 52f
4:40am 7 13 mph 1012.9mb 52f
4:30am 7 13 mph 1012.9mb 52f
4:20am 8 15 mph 1012.9mb 52f
4:10am 7 13 mph 1012.5mb 53f
4:00am 9 17 mph 1012.5mb 53f
3:40am 8 18 mph 1012.5mb 54f
3:30am 8 20 mph 1012.5mb 54f
3:20am 9 20 mph 1012.2mb 54f
3:10am 10 16 mph 1012.2mb 54f
3:00am 7 14 mph 1012.2mb 54f
2:40am 10 16 mph 1012.2mb 55f
2:30am 8 14 mph 1011.9mb 55f
2:20am 8 17 mph 1011.9mb 55f
2:10am 5 13 mph 1012.2mb 55f
2:00am 7 13 mph 1011.9mb 55f
1:40am 6 13 mph 1011.9mb 56f
1:30am 1 7 mph 1011.5mb 55f
1:20am 7 11 mph 1011.5mb 55f
1:10am 6 11 mph 1011.9mb 55f
1:00am 9 21 mph 1011.5mb 56f
12:40am 7 16 mph 1011.5mb 57f
12:30am 8 13 mph 1011.5mb 57f
12:20am 8 17 mph 1011.5mb 57f
12:10am 7 20 mph 1011.5mb 57f
12:00am 7 21 mph 1011.5mb 58f
Mon 07/06 11:40pm 8 15 mph 1011.2mb 58f
11:30pm 3 14 mph 1011.2mb 58f
11:20pm 5 13 mph 1011.2mb 58f
11:10pm 8 14 mph 1011.2mb 58f
11:00pm 6 14 mph 1011.2mb 58f
10:40pm 7 11 mph 1010.5mb 58f
10:30pm 3 14 mph 1010.5mb 58f
10:20pm 5 10 mph 1010.5mb 58f
10:10pm 3 20 mph 1010.5mb 58f
10:00pm 11 18 mph 1009.5mb 58f
9:40pm 10 21 mph 1009.1mb 58f
9:30pm 10 25 mph 1008.8mb 58f
9:20pm 15 20 mph 1008.8mb 58f
9:10pm 13 21 mph 1008.8mb 58f
9:00pm 13 22 mph 1008.8mb 58f
8:40pm 13 20 mph 1008.8mb 58f
8:30pm 13 21 mph 1008.8mb 58f
8:20pm 8 20 mph 1009.1mb 58f
8:10pm 14 23 mph 1009.1mb 58f
8:00pm 13 22 mph 1009.1mb 59f
7:40pm 11 28 mph 1009.5mb 59f
7:30pm 9 23 mph 1009.1mb 60f
7:20pm 11 20 mph 1008.8mb 61f
7:10pm 7 18 mph 1008.8mb 63f
7:00pm 11 15 mph 1008.5mb 62f
6:40pm 13 18 mph 1008.1mb 63f
6:30pm 16 20 mph 1008.1mb 63f
6:20pm 17 22 mph 1008.1mb 63f
6:10pm 18 22 mph 1008.1mb 62f
6:00pm 18 21 mph 1008.5mb 63f
5:40pm 15 21 mph 1008.5mb 63f
5:30pm 16 22 mph 1008.5mb 63f
5:20pm 16 20 mph 1008.5mb 62f
5:10pm 15 18 mph 1008.8mb 62f
5:00pm 16 20 mph 1008.8mb 62f
4:40pm 16 21 mph 1009.1mb 62f
4:30pm 17 22 mph 1009.1mb 62f
4:20pm 17 22 mph 1009.1mb 62f
4:10pm 18 23 mph 1009.1mb 62f
4:00pm 20 23 mph 1009.1mb 62f
3:40pm 20 25 mph 1009.1mb 62f
3:30pm 21 28 mph 1009.1mb 62f
3:20pm 21 25 mph 1009.5mb 62f
3:10pm 20 24 mph 1009.5mb 63f
3:00pm 21 24 mph 1009.5mb 62f
2:40pm 18 23 mph 1009.8mb 62f
2:30pm 20 25 mph 1009.8mb 63f
2:20pm 21 25 mph 1009.8mb 63f
2:10pm 20 24 mph 1009.8mb 63f
2:00pm 20 24 mph 1010.2mb 63f
1:40pm 17 20 mph 1010.5mb 62f
1:30pm 17 21 mph 1010.8mb 62f
1:20pm 17 24 mph 1011.2mb 62f
1:10pm 22 28 mph 1011.2mb 63f
1:00pm 23 26 mph 1011.2mb 63f
12:40pm 21 23 mph 1011.5mb 63f
12:30pm 18 22 mph 1011.5mb 62f
12:20pm 16 20 mph 1011.9mb 62f
12:10pm 18 21 mph 1011.9mb 62f
12:00pm 16 18 mph 1011.9mb 62f
11:40am 16 18 mph 1011.9mb 62f
11:30am 16 18 mph 1011.9mb 62f
11:20am 14 18 mph 1012.2mb 62f
11:10am 16 21 mph 1011.9mb 62f
11:00am 18 21 mph 1012.2mb 62f
10:40am 18 23 mph 1012.2mb 61f
10:30am 20 23 mph 1012.2mb 61f
10:20am 17 22 mph 1011.9mb 61f
10:10am 20 23 mph 1011.9mb 62f
10:00am 18 24 mph 1012.2mb 62f
9:40am 21 24 mph 1011.9mb 62f
9:30am 20 24 mph 1011.9mb 63f
9:20am 18 22 mph 1012.2mb 62f
9:10am 17 21 mph 1011.9mb 62f
9:00am 17 20 mph 1011.9mb 62f
8:40am 17 21 mph 1011.9mb 62f
8:30am 15 18 mph 1012.2mb 62f
8:20am 16 20 mph 1012.5mb 62f
8:10am 16 20 mph 1012.5mb 62f
8:00am 16 21 mph 1012.5mb 62f
7:40am 20 22 mph 1012.5mb 62f
7:30am 18 23 mph 1012.5mb 62f
7:20am 18 22 mph 1012.5mb 62f
7:10am 17 21 mph 1012.5mb 62f
7:00am 17 22 mph 1012.5mb 62f
6:40am 17 21 mph 1012.9mb 62f
6:30am 17 20 mph 1012.9mb 62f
6:20am 15 18 mph 1013.2mb 62f
6:10am 14 17 mph 1013.2mb 62f
6:00am 14 16 mph 1013.2mb 62f
5:50am 14 17 mph 1013.2mb 62f
5:40am 15 17 mph 1013.2mb 62f
5:30am 15 16 mph 1013.2mb 62f
5:20am 14 16 mph 1013.2mb 62f
5:10am 13 15 mph 1013.2mb 62f
5:00am 13 15 mph 1013.2mb 62f
4:50am 11 16 mph 1013.2mb 62f
4:40am 13 15 mph 1013.2mb 62f
4:30am 14 17 mph 1012.9mb 62f
4:20am 15 17 mph 1012.5mb 62f
4:10am 15 18 mph 1012.5mb 62f
4:00am 16 17 mph 1012.5mb 63f
3:50am 14 18 mph 1012.9mb 63f
3:40am 16 18 mph 1012.9mb 63f
3:30am 16 20 mph 1012.9mb 63f
3:20am 16 18 mph 1013.2mb 63f
3:10am 16 20 mph 1013.2mb 63f
3:00am 17 20 mph 1013.5mb 63f
2:50am 17 20 mph 1013.5mb 63f
2:40am 17 22 mph 1013.2mb 63f
2:30am 17 22 mph 1013.5mb 64f
2:20am 17 22 mph 1013.5mb 64f
2:10am 17 21 mph 1013.5mb 64f
2:00am 18 20 mph 1013.9mb 63f
1:50am 17 21 mph 1013.9mb 63f
1:40am 18 22 mph 1013.5mb 63f
1:30am 20 22 mph 1013.2mb 63f
1:20am 18 23 mph 1013.2mb 63f
1:10am 17 22 mph 1013.2mb 63f
1:00am 17 23 mph 1013.2mb 63f
12:50am 18 23 mph 1013.2mb 63f
12:40am 20 26 mph 1013.2mb 63f
12:30am 18 21 mph 1013.2mb 63f
12:20am 18 22 mph 1013.2mb 63f
12:10am 18 22 mph 1013.5mb 63f
12:00am 17 23 mph 1013.2mb 63f
Sun 07/05 11:50pm 18 22 mph 1013.2mb 63f
11:40pm 17 22 mph 1013.5mb 63f
11:30pm 17 22 mph 1013.5mb 63f
11:20pm 18 22 mph 1013.2mb 63f
11:10pm 17 21 mph 1013.5mb 64f
11:00pm 17 22 mph 1013.5mb 64f
10:50pm 17 22 mph 1013.9mb 64f
10:40pm 17 22 mph 1013.9mb 64f
10:30pm 17 22 mph 1013.5mb 64f
10:20pm 18 22 mph 1013.9mb 64f
10:10pm 17 23 mph 1014.2mb 64f
10:00pm 17 21 mph 1014.2mb 64f
9:50pm 16 22 mph 1014.9mb 64f
9:40pm 18 21 mph 1014.6mb 64f
9:30pm 18 23 mph 1014.6mb 64f
9:20pm 20 23 mph 1014.2mb 64f
9:10pm 18 22 mph 1014.6mb 64f
9:00pm 18 22 mph 1014.6mb 64f
8:50pm 17 22 mph 1014.9mb 64f
8:40pm 18 22 mph 1014.6mb 64f
8:30pm 18 23 mph 1014.6mb 64f
8:20pm 17 22 mph 1014.6mb 64f
8:10pm 17 21 mph 1014.2mb 64f
8:00pm 16 20 mph 1014.2mb 64f
7:50pm 15 18 mph 1014.9mb 64f
7:40pm 14 17 mph 1014.9mb 64f
7:30pm 14 17 mph 1014.9mb 64f
7:20pm 14 17 mph 1014.9mb 64f
7:10pm 14 17 mph 1014.9mb 64f
7:00pm 14 16 mph 1014.9mb 64f
6:50pm 14 17 mph 1014.9mb 64f
6:40pm 13 16 mph 1014.9mb 64f
6:30pm 14 16 mph 1014.9mb 64f
6:20pm 14 16 mph 1014.9mb 64f
6:10pm 14 18 mph 1014.9mb 65f
6:00pm 13 15 mph 1015.2mb 64f
5:50pm 10 13 mph 1015.6mb 64f
5:40pm 9 11 mph 1015.6mb 64f
5:30pm 10 17 mph 1015.6mb 64f
5:20pm 14 18 mph 1015.2mb 64f
5:10pm 13 15 mph 1015.2mb 64f
5:00pm 13 14 mph 1015.6mb 64f
4:50pm 11 14 mph 1015.9mb 64f
4:40pm 10 13 mph 1015.9mb 64f
4:30pm 11 13 mph 1015.9mb 64f
4:20pm 10 13 mph 1015.9mb 63f
4:10pm 11 15 mph 1015.9mb 63f
4:00pm 15 17 mph 1015.9mb 64f
3:50pm 11 16 mph 1016.3mb 64f
3:40pm 15 16 mph 1015.9mb 64f
3:30pm 13 17 mph 1015.9mb 64f
3:20pm 16 18 mph 1016.3mb 64f
3:10pm 13 17 mph 1016.3mb 64f
3:00pm 13 14 mph 1016.3mb 64f
2:50pm 11 16 mph 1016.6mb 64f
2:40pm 16 18 mph 1016.3mb 64f
2:30pm 15 17 mph 1016.3mb 63f
2:20pm 15 17 mph 1016.3mb 63f
2:10pm 14 16 mph 1016.6mb 62f
2:00pm 16 18 mph 1016.6mb 63f
1:50pm 14 16 mph 1016.9mb 63f
1:40pm 14 17 mph 1016.9mb 62f
1:30pm 14 16 mph 1016.9mb 62f
1:20pm 14 16 mph 1016.9mb 62f
1:10pm 13 16 mph 1016.9mb 62f
1:00pm 15 17 mph 1016.9mb 62f
12:50pm 15 18 mph 1016.9mb 62f
12:40pm 16 18 mph 1016.6mb 62f
12:30pm 16 18 mph 1016.6mb 62f
12:20pm 16 18 mph 1016.6mb 62f
12:10pm 15 16 mph 1016.6mb 62f
12:00pm 15 18 mph 1016.6mb 62f
11:50am 15 18 mph 1016.9mb 62f
11:40am 16 20 mph 1016.6mb 61f
11:30am 16 20 mph 1016.6mb 61f
11:20am 16 18 mph 1016.9mb 61f
11:10am 16 17 mph 1016.9mb 61f
11:00am 16 18 mph 1016.9mb 61f
10:50am 16 18 mph 1016.9mb 61f
10:40am 15 17 mph 1016.9mb 61f
10:30am 14 17 mph 1016.9mb 60f
10:20am 14 16 mph 1016.9mb 61f
10:10am 11 14 mph 1016.9mb 61f
10:00am 10 13 mph 1016.9mb 61f
9:50am 8 11 mph 1017.3mb 61f
9:40am 10 13 mph 1016.9mb 61f
9:30am 8 10 mph 1016.9mb 62f
9:20am 6 11 mph 1016.9mb 62f
9:10am 10 15 mph 1017.3mb 61f
9:00am 13 15 mph 1017.3mb 60f
8:50am 14 16 mph 1017.6mb 60f
8:40am 13 16 mph 1017.3mb 61f
8:30am 15 16 mph 1017.3mb 61f
8:20am 13 16 mph 1017.3mb 61f
8:10am 11 16 mph 1017.3mb 61f
8:00am 13 16 mph 1017.3mb 61f
7:50am 14 17 mph 1017.6mb 61f
7:40am 13 16 mph 1017.3mb 61f
7:30am 15 17 mph 1017.3mb 61f
7:20am 15 17 mph 1017.3mb 61f
7:10am 14 16 mph 1017.3mb 61f
7:00am 13 15 mph 1017.3mb 62f
6:50am 13 16 mph 1017.6mb 62f
6:40am 15 16 mph 1017.3mb 62f
6:30am 14 17 mph 1017.3mb 62f
6:20am 15 17 mph 1017.3mb 62f
6:10am 15 21 mph 1017.3mb 63f
6:00am 15 20 mph 1016.9mb 62f
5:50am 13 21 mph 1016.9mb 63f
5:40am 16 21 mph 1016.6mb 63f
5:30am 16 18 mph 1016.6mb 63f
5:20am 16 20 mph 1016.3mb 63f
5:10am 16 20 mph 1016.3mb 64f
5:00am 16 17 mph 1015.9mb 64f
4:50am 15 17 mph 1015.9mb 63f
4:40am 13 15 mph 1015.9mb 63f
4:30am 9 11 mph 1016.3mb 62f
4:20am 6 8 mph 1016.3mb 62f
4:10am 1 6 mph 1016.3mb 63f
4:00am 5 7 mph 1016.3mb 63f
3:50am 3 5 mph 1016.6mb 63f
3:40am  -  6 mph 1016.3mb 63f
3:30am 3 8 mph 1016.3mb 62f
3:20am 7 10 mph 1016.6mb 62f
3:10am 7 10 mph 1016.6mb 63f
3:00am 7 10 mph 1016.6mb 63f
2:50am 8 9 mph 1016.9mb 63f
2:40am 7 9 mph 1016.9mb 63f
2:30am 3 8 mph 1016.6mb 63f
2:20am 6 9 mph 1016.6mb 63f
2:10am 6 8 mph 1016.6mb 64f
2:00am 5 6 mph 1016.6mb 63f
1:50am 5 7 mph 1016.9mb 63f
1:40am 6 7 mph 1016.9mb 63f
1:30am 6 7 mph 1016.9mb 63f
1:20am 3 5 mph 1016.9mb 61f
1:10am  -  1 mph 1016.9mb 61f
1:00am  -  2 mph 1016.9mb 62f
12:50am  -  3 mph 1016.9mb 63f
12:40am 2 3 mph 1016.6mb 63f
12:30am  -  3 mph 1016.6mb 63f
12:20am  -  3 mph 1016.6mb 62f
12:10am 1 2 mph 1016.6mb 62f
12:00am  -  3 mph 1016.6mb 63f
Sat 07/04 11:50pm 2 3 mph 1016.3mb 63f
11:40pm 2 3 mph 1016.3mb 63f
11:30pm 2 3 mph 1015.9mb 62f
11:20pm 2 3 mph 1015.9mb 62f
11:10pm 3 6 mph 1015.9mb 62f
11:00pm 5 6 mph 1015.9mb 62f
10:50pm 5 8 mph 1016.3mb 63f
10:40pm 7 8 mph 1015.9mb 64f
10:30pm 3 6 mph 1015.9mb 64f
10:20pm 2 3 mph 1015.9mb 61f
10:10pm  -  mph 1015.9mb 61f
10:00pm  -  1 mph 1015.9mb 61f
9:50pm  -  mph 1015.9mb 61f
9:40pm  -  2 mph 1015.9mb 61f
9:30pm 2
mph
1015.9mb 62f
9:20pm  -  1 mph 1015.6mb 62f
9:10pm 1 2 mph 1015.6mb 62f
9:00pm  -  1 mph 1015.6mb 62f
8:50pm  -  mph 1015.6mb 62f
8:40pm  -  mph 1015.2mb 62f
8:30pm  -  1 mph 1015.2mb 63f
8:20pm  -  1 mph 1015.2mb 64f
8:10pm  -  mph 1015.2mb 64f
8:00pm  -  mph 1015.2mb 64f
7:50pm  -  2 mph 1015.2mb 64f
7:40pm 2
mph
1015.2mb 65f
7:30pm  -  2 mph 1015.2mb 65f
7:20pm 3
mph
1015.2mb 65f
7:10pm 3 6 mph 1014.9mb 64f
7:00pm 5
mph
1014.9mb 65f
6:50pm 2 3 mph 1014.9mb 65f
6:40pm 3 5 mph 1014.9mb 64f
6:30pm 5
mph
1014.9mb 64f
6:20pm 5 6 mph 1014.9mb 64f
6:10pm 6 7 mph 1014.9mb 64f
6:00pm 7 9 mph 1014.9mb 64f
5:50pm 7 8 mph 1015.2mb 64f
5:40pm 8
mph
1014.9mb 64f
5:30pm 7 8 mph 1014.9mb 64f
5:20pm 7 8 mph 1014.9mb 64f
5:10pm 5 7 mph 1015.2mb 64f
5:00pm 5 8 mph 1015.2mb 64f
4:50pm 5 6 mph 1015.2mb 65f
4:40pm 5 6 mph 1015.2mb 65f
4:30pm 1 3 mph 1015.2mb 66f
4:20pm 3
mph
1015.2mb 66f
4:10pm 1 5 mph 1015.2mb 66f
4:00pm 3 5 mph 1015.2mb 66f
3:50pm 3
mph
1015.2mb 67f
3:40pm  -  2 mph 1015.2mb 67f
3:30pm  -  2 mph 1015.6mb 66f
3:20pm 2 5 mph 1015.6mb 65f
3:10pm 3 5 mph 1015.6mb 65f
3:00pm 5 6 mph 1015.6mb 63f
2:50pm 5 6 mph 1015.6mb 64f
2:40pm 5 7 mph 1015.6mb 63f
2:30pm 6 7 mph 1015.6mb 63f
2:20pm 5 7 mph 1015.6mb 64f
2:10pm 7 8 mph 1015.6mb 63f
2:00pm 6 7 mph 1015.6mb 64f
1:50pm 6 7 mph 1015.6mb 64f
1:40pm 5 7 mph 1015.6mb 62f
1:30pm 6
mph
1015.2mb 63f
1:20pm 5 6 mph 1015.2mb 63f
1:10pm 6 7 mph 1015.2mb 63f
1:00pm 5 7 mph 1015.2mb 63f
12:50pm 6 7 mph 1015.2mb 63f
12:40pm 6 9 mph 1014.9mb 64f
12:30pm 8
mph
1014.9mb 62f
12:20pm 6 8 mph 1014.9mb 62f
12:10pm 8 9 mph 1014.9mb 62f
12:00pm 8 9 mph 1015.2mb 62f
11:50am 9
mph
1015.2mb 62f
11:40am 8 9 mph 1015.2mb 62f
11:30am 8 9 mph 1014.9mb 62f
11:20am 6 8 mph 1014.9mb 61f
11:10am 6 7 mph 1014.9mb 62f
11:00am 3 7 mph 1014.9mb 62f
10:50am 7 8 mph 1014.9mb 61f
10:40am 5 6 mph 1014.9mb 61f
10:30am 3 5 mph 1014.9mb 61f
10:20am 3
mph
1014.6mb 61f
10:10am  -  1 mph 1014.9mb 61f
10:00am  -  mph 1014.6mb 61f
9:50am  -  2 mph 1014.9mb 61f
9:40am 3
mph
1014.6mb 60f
9:30am  -  3 mph 1014.6mb 60f
9:20am 2 3 mph 1014.6mb 60f
9:10am 2 3 mph 1014.6mb 60f
9:00am 2
mph
1014.6mb 60f
8:50am  -  2 mph 1014.6mb 60f
8:40am  -  mph 1014.6mb 60f
8:30am  -  3 mph 1014.6mb 60f
8:20am  -  mph 1014.6mb 61f
8:10am  -  3 mph 1014.6mb 65f
8:00am  -  mph 1014.6mb 65f
7:50am  -  2 mph 1014.6mb 65f
7:40am  -  3 mph 1014.2mb 64f
7:30am  -  mph 1014.2mb 63f
7:20am 1 3 mph 1014.2mb 62f
7:10am  -  3 mph 1014.2mb 61f
7:00am  -  3 mph 1014.2mb 61f
6:50am  -  2 mph 1014.2mb 60f
6:40am  -  3 mph 1013.9mb 60f
6:30am  -  3 mph 1013.9mb 59f
6:20am  -  mph 1013.9mb 60f
6:10am  -  5 mph 1013.5mb 59f
6:00am 3 7 mph 1013.5mb 58f
5:50am 6 8 mph 1013.5mb 58f
5:40am 6 8 mph 1013.5mb 58f
5:30am 7 9 mph 1013.2mb 57f
5:20am 5 7 mph 1013.2mb 57f
5:10am 3 7 mph 1013.2mb 57f
5:00am 3 7 mph 1012.9mb 57f
4:50am 5 8 mph 1013.2mb 57f
4:40am 5 7 mph 1012.9mb 57f
4:30am 3 6 mph 1012.9mb 56f
4:20am 3
mph
1012.5mb 56f
4:10am  -  mph 1012.5mb 56f
4:00am  -  5 mph 1012.5mb 57f
3:50am 2 6 mph 1012.5mb 57f
3:40am 5 6 mph 1012.2mb 56f
3:30am  -  mph 1012.2mb 58f
3:20am  -  mph 1012.2mb 56f
3:10am  -  mph 1012.2mb 57f
3:00am  -  mph 1011.9mb 57f
2:50am  -  mph 1012.2mb 57f
2:40am  -  mph 1011.9mb 58f
2:30am  -  mph 1011.9mb 58f
2:20am  -  mph 1011.9mb 58f
2:10am  -  mph 1011.9mb 58f
2:00am  -  1 mph 1011.5mb 58f
1:50am 3 5 mph 1011.9mb 58f
1:40am  -  mph 1011.9mb 58f
1:30am  -  mph 1011.9mb 58f
1:20am  -  mph 1011.9mb 58f
1:10am  -  mph 1011.9mb 57f
1:00am  -  2 mph 1011.9mb 58f
12:50am 3
mph
1011.9mb 59f
12:40am  -  2 mph 1011.9mb 59f
12:30am  -  2 mph 1011.9mb 58f
12:20am 1 2 mph 1011.9mb 59f
12:10am  -  2 mph 1011.9mb 60f
12:00am  -  mph 1011.9mb 60f
Fri 07/03 11:50pm  -  5 mph 1012.2mb 60f
11:40pm 5 6 mph 1011.9mb 60f
11:30pm  -  6 mph 1012.2mb 61f
11:20pm 5 9 mph 1011.9mb 61f
11:10pm 9 11 mph 1011.9mb 61f
11:00pm 8 9 mph 1011.9mb 60f
10:50pm  -  8 mph 1011.9mb 60f
10:40pm 8 11 mph 1011.5mb 60f
10:30pm 10 11 mph 1011.5mb 60f
10:20pm 10 13 mph 1011.5mb 60f
10:10pm 11 14 mph 1011.5mb 60f
10:00pm 10 13 mph 1011.5mb 61f
9:50pm 11 14 mph 1011.5mb 61f
9:40pm 11 15 mph 1011.2mb 61f
9:30pm 11 14 mph 1011.2mb 61f
9:20pm 13 16 mph 1011.2mb 61f
9:10pm 14 16 mph 1010.8mb 62f
9:00pm 15 18 mph 1010.8mb 62f
8:50pm 15 17 mph 1010.8mb 61f
8:40pm 15 17 mph 1010.8mb 61f
8:30pm 15 18 mph 1010.8mb 61f
8:20pm 14 17 mph 1010.8mb 61f
8:10pm 15 18 mph 1010.8mb 61f
8:00pm 15 17 mph 1010.8mb 61f
7:50pm 15 18 mph 1011.2mb 61f
7:40pm 16 18 mph 1011.2mb 61f
7:30pm 16 17 mph 1011.2mb 61f
7:20pm 15 17 mph 1011.5mb 61f
7:10pm 16 18 mph 1011.5mb 61f
7:00pm 16 18 mph 1011.5mb 61f
6:50pm 16 21 mph 1011.5mb 61f
6:40pm 16 22 mph 1011.5mb 61f
6:30pm 18 22 mph 1011.2mb 61f
6:20pm 18 22 mph 1011.5mb 61f
6:10pm 17 21 mph 1011.5mb 61f
6:00pm 17 22 mph 1011.5mb 61f
5:50pm 18 21 mph 1011.5mb 61f
5:40pm 17 20 mph 1011.5mb 61f
5:30pm 16 21 mph 1011.5mb 61f
5:20pm 16 20 mph 1011.5mb 61f
5:10pm 16 18 mph 1011.9mb 61f
5:00pm 15 18 mph 1011.9mb 61f
4:50pm 15 18 mph 1011.9mb 61f
4:40pm 16 20 mph 1011.9mb 60f
4:30pm 15 17 mph 1011.9mb 61f
4:20pm 15 17 mph 1011.9mb 61f
4:10pm 15 20 mph 1011.9mb 61f
4:00pm 18 21 mph 1011.9mb 61f
3:50pm 17 20 mph 1012.2mb 61f
3:40pm 17 18 mph 1011.9mb 60f
3:30pm 17 20 mph 1011.9mb 61f
3:20pm 17 21 mph 1011.9mb 61f
3:10pm 17 21 mph 1011.9mb 61f
3:00pm 15 17 mph 1011.9mb 60f
2:50pm 15 17 mph 1012.2mb 60f
2:40pm 15 17 mph 1012.2mb 60f
2:30pm 15 17 mph 1012.2mb 60f
2:20pm 15 16 mph 1012.5mb 60f
2:10pm 14 15 mph 1012.5mb 60f
2:00pm 11 15 mph 1012.5mb 60f
1:50pm 14 16 mph 1012.9mb 60f
1:40pm 14 16 mph 1012.9mb 60f
1:30pm 14 16 mph 1012.5mb 60f
1:20pm 13 16 mph 1012.9mb 60f
1:10pm 15 16 mph 1012.9mb 60f
1:00pm 15 16 mph 1012.9mb 59f
12:50pm 14 16 mph 1013.2mb 59f
12:40pm 14 17 mph 1012.9mb 59f
12:30pm 14 15 mph 1012.9mb 59f
12:20pm 11 15 mph 1013.2mb 60f
12:10pm 14 17 mph 1013.2mb 63f
12:00pm 15 18 mph 1013.2mb 63f
11:50am 16 18 mph 1013.5mb 64f
11:40am 15 18 mph 1013.5mb 64f
11:30am 15 17 mph 1013.5mb 64f